Location: Vista Encantada
(35.1109°N, 106.5681°W)
Time: 21:54:02
(UTC+00:00)

Nauka - Pass Details

Date: 04 October 2021
Orbit: 417 x 423 km, 51.6° (Epoch: 26 October)

Event Time Altitude Azimuth Distance (km) Brightness Sun altitude
Rises 02:05:55 0° 320° (NW) 2,363 ? -17.0°
Reaches altitude 10° 02:08:11 10° 332° (NNW) 1,498 ? -17.4°
Enters shadow 02:11:02 30° 29° (NNE) 781 ? -18.0°
